Hourly Data Report for June 13, 2021

HALL BEACH A
NUNAVUT
Current Station Operator: NAVCAN

68°46'33.000" N
81°14'33.000" W
9.10 m
2402354
71293
YUX

Download Data

Hourly Data (June 2021)
Hourly Data Report for June 13, 2021
TIME
LST
Temp Definition
°C
Dew Point Definition
°C
Rel Hum Definition
%
Precip. Amount Definition
mm

Wind Dir Definition
10's deg

Wind Spd Definition
km/h
Visibility Definition
km
Stn Press Definition
kPa
Hmdx Definition


Wind Chill Definition


Weather Definition


00:00 -0.6 -1.3 95 0.0 32 22 16.1 101.26   -6 LegendNANA
01:00 -1.0 -1.7 95 0.0 32 24 16.1 101.28   -7 LegendNANA
02:00 -1.2 -2.0 95 0.0 32 24 16.1 101.28   -7 LegendNANA
03:00 -1.3 -2.0 95 0.0 32 24 16.1 101.30   -7 LegendNANA
04:00 -1.3 -2.1 95 0.0 33 22 16.1 101.30   -7 LegendNANA
05:00 -0.8 -1.7 94 0.0 33 22 16.1 101.34   -7 LegendNANA
06:00 0.2 -0.8 93 0.0 34 21 16.1 101.38     LegendNANA
07:00 0.8 -0.4 92 0.0 34 22 16.1 101.40     LegendNANA
08:00 1.1 -0.1 92 0.0 34 17 16.1 101.44     LegendNANA
09:00 1.5 0.0 90 0.0 34 18 16.1 101.46     LegendNANA
10:00 1.4 0.2 92 0.0 34 15 16.1 101.48     LegendNANA
11:00 1.6 0.3 91 0.0 34 17 16.1 101.49     LegendNANA
12:00 1.7 0.2 90 0.0 32 17 16.1 101.53     LegendNANA
13:00 1.7 0.2 90 0.0 33 11 16.1 101.56     LegendNANA
14:00 2.3 0.4 87 0.0 34 18 16.1 101.59     LegendNANA
15:00 1.9 0.3 89 0.0 32 15 16.1 101.62     LegendNANA
16:00 1.7 0.2 90 0.0 32 15 16.1 101.64     LegendNANA
17:00 1.7 0.4 91 0.0 34 17 16.1 101.66     LegendNANA
18:00 2.0 0.2 88 0.0 34 15 16.1 101.72     LegendNANA
19:00 1.3 -0.2 90 0.0 35 15 16.1 101.72     LegendNANA
20:00 0.7 -0.5 92 0.0 33 15 16.1 101.75     LegendNANA
21:00 0.3 -0.7 93 0.0 34 15 16.1 101.76     LegendNANA
22:00 -0.1 -1.0 94 0.0 32 21 16.1 101.79   -6 LegendNANA
23:00 -1.0 -1.6 96 0.0 33 18 16.1 101.81   -6 LegendNANA

Notes on Data Quality.

Legend

  • E = Estimated
  • M = Missing
  • NA = Not Available*
  • [empty] = Indicates an unobserved value
Date modified: